Simultaneous Nadir Overpasses (SNOs) Predictions

Prediction of SNOs between NOAA-19 and NPP Satellite Orbit:

Table of predicted SNOs for the next 14.0 days since TLE Epoch: 7/6/2018
Index Date (NOAA-19) Time (NOAA-19) Lat,Lon (NOAA-19) SZA (NOAA-19 ) Date (NPP) Time (NPP) Lat,Lon (NPP) SZA (NPP ) Distance(km) Time Diff (sec)
1 07/09/2018 00:20:49 -80.51, -50.44 118.75 07/09/2018 00:21:56 -80.52, -50.49 118.77 1.95 67
2 07/09/2018 01:11:50 80.51, 116.79 61.26 07/09/2018 01:12:41 80.51, 116.92 61.22 2.52 51
3 07/09/2018 02:02:50 -80.51, -75.90 118.75 07/09/2018 02:03:26 -80.52, -75.90 118.76 1.76 36
4 07/09/2018 02:53:51 80.51, 91.34 61.26 07/09/2018 02:54:11 80.52, 91.51 61.23 3.23 20
5 07/09/2018 03:44:51 -80.51,-101.36 118.75 07/09/2018 03:44:56 -80.53,-101.32 118.74 1.99 5
6 07/09/2018 04:35:51 80.53, 66.23 61.23 07/09/2018 04:35:41 80.52, 66.09 61.25 2.61 10
7 07/09/2018 05:26:52 -80.51,-126.82 118.74 07/09/2018 05:26:26 -80.53,-126.73 118.73 2.52 26
8 07/09/2018 06:17:52 80.53, 40.78 61.23 07/09/2018 06:17:11 80.52, 40.68 61.26 1.88 41
9 07/09/2018 07:08:53 -80.51,-152.28 118.74 07/09/2018 07:07:56 -80.53,-152.14 118.71 3.20 57




NCC Satellite Simultaneous Nadir Overpasses (SNOs) Prediction Service
